����������;��������(kWh)
2017-07-31 00:00;90,45
2017-07-31 00:15;93,5
2017-07-31 00:30;92,8
2017-07-31 00:45;100,85
2017-07-31 01:00;105,4
2017-07-31 01:15;105,15
2017-07-31 01:30;98,1
2017-07-31 01:45;96,25
2017-07-31 02:00;96,15
2017-07-31 02:15;94,7
2017-07-31 02:30;96,65
2017-07-31 02:45;96,4
2017-07-31 03:00;91,35
2017-07-31 03:15;97,5
2017-07-31 03:30;96,1
2017-07-31 03:45;95
2017-07-31 04:00;92,55
2017-07-31 04:15;89,95
2017-07-31 04:30;93,1
2017-07-31 04:45;92,7
2017-07-31 05:00;92,25
2017-07-31 05:15;90,9
2017-07-31 05:30;92,25
2017-07-31 05:45;91
2017-07-31 06:00;92,1
2017-07-31 06:15;91,2
2017-07-31 06:30;88,2
2017-07-31 06:45;83,8
2017-07-31 07:00;89,75
2017-07-31 07:15;95,55
2017-07-31 07:30;97,2
2017-07-31 07:45;98,75
2017-07-31 08:00;111,4
2017-07-31 08:15;114,7
2017-07-31 08:30;122
2017-07-31 08:45;130,55
2017-07-31 09:00;136,4
2017-07-31 09:15;149,2
2017-07-31 09:30;149,85
2017-07-31 09:45;159,5
2017-07-31 10:00;174,35
2017-07-31 10:15;174,55
2017-07-31 10:30;180,35
2017-07-31 10:45;191
2017-07-31 11:00;203,3
2017-07-31 11:15;250,3
2017-07-31 11:30;217,15
2017-07-31 11:45;202,65
2017-07-31 12:00;215,3
2017-07-31 12:15;211,65
2017-07-31 12:30;216,85
2017-07-31 12:45;223,9
2017-07-31 13:00;220,3
2017-07-31 13:15;224,65
2017-07-31 13:30;216,45
2017-07-31 13:45;212,45
2017-07-31 14:00;209,55
2017-07-31 14:15;207,8
2017-07-31 14:30;201,5
2017-07-31 14:45;191,3
2017-07-31 15:00;182,15
2017-07-31 15:15;172,65
2017-07-31 15:30;167,65
2017-07-31 15:45;162,7
2017-07-31 16:00;157,9
2017-07-31 16:15;154,75
2017-07-31 16:30;149,7
2017-07-31 16:45;147,35
2017-07-31 17:00;136,8
2017-07-31 17:15;134,5
2017-07-31 17:30;130,1
2017-07-31 17:45;127,25
2017-07-31 18:00;128,2
2017-07-31 18:15;128,1
2017-07-31 18:30;121,5
2017-07-31 18:45;124,1
2017-07-31 19:00;122,65
2017-07-31 19:15;119,25
2017-07-31 19:30;117,2
2017-07-31 19:45;118,35
2017-07-31 20:00;111,65
2017-07-31 20:15;113,4
2017-07-31 20:30;112,2
2017-07-31 20:45;116,15
2017-07-31 21:00;117,6
2017-07-31 21:15;116,6
2017-07-31 21:30;115,1
2017-07-31 21:45;110,9
2017-07-31 22:00;105,7
2017-07-31 22:15;111,3
2017-07-31 22:30;110,85
2017-07-31 22:45;110,05
2017-07-31 23:00;111,6
2017-07-31 23:15;102,85
2017-07-31 23:30;98,45
2017-07-31 23:45;100,95
2017-08-01 00:00;99,7
2017-08-01 00:15;99,55
2017-08-01 00:30;99,35
2017-08-01 00:45;97,8
2017-08-01 01:00;99,55
2017-08-01 01:15;95,45
2017-08-01 01:30;95,25
2017-08-01 01:45;97,45
2017-08-01 02:00;96,35
2017-08-01 02:15;98,05
2017-08-01 02:30;96,2
2017-08-01 02:45;95,75
2017-08-01 03:00;85,7
2017-08-01 03:15;85,65
2017-08-01 03:30;85,5
2017-08-01 03:45;86,25
2017-08-01 04:00;86,35
2017-08-01 04:15;85,1
2017-08-01 04:30;86,4
2017-08-01 04:45;85,6
2017-08-01 05:00;86
2017-08-01 05:15;85,65
2017-08-01 05:30;84,95
2017-08-01 05:45;85,25
2017-08-01 06:00;83,85
2017-08-01 06:15;83,75
2017-08-01 06:30;87,65
2017-08-01 06:45;94,15
2017-08-01 07:00;88,5
2017-08-01 07:15;93,2
2017-08-01 07:30;137
2017-08-01 07:45;130,05
2017-08-01 08:00;114,4
2017-08-01 08:15;111,75
2017-08-01 08:30;116
2017-08-01 08:45;125,75
2017-08-01 09:00;135,8
2017-08-01 09:15;130,9
2017-08-01 09:30;131,3
2017-08-01 09:45;136,1
2017-08-01 10:00;136,6
2017-08-01 10:15;148,3
2017-08-01 10:30;165,7
2017-08-01 10:45;171,8
2017-08-01 11:00;165,65
2017-08-01 11:15;173,4
2017-08-01 11:30;178,85
2017-08-01 11:45;183,3
2017-08-01 12:00;182,95
2017-08-01 12:15;179,55
2017-08-01 12:30;185,6
2017-08-01 12:45;194,9
2017-08-01 13:00;189,95
2017-08-01 13:15;188,05
2017-08-01 13:30;195,6
2017-08-01 13:45;188
2017-08-01 14:00;184,6
2017-08-01 14:15;182,75
2017-08-01 14:30;178,6
2017-08-01 14:45;172,55
2017-08-01 15:00;169,15
2017-08-01 15:15;158,8
2017-08-01 15:30;150,45
2017-08-01 15:45;148,65
2017-08-01 16:00;146
2017-08-01 16:15;140,55
2017-08-01 16:30;138
2017-08-01 16:45;134,35
2017-08-01 17:00;132,25
2017-08-01 17:15;132
2017-08-01 17:30;130,85
2017-08-01 17:45;130,4
2017-08-01 18:00;127,05
2017-08-01 18:15;124,1
2017-08-01 18:30;125,4
2017-08-01 18:45;121,6
2017-08-01 19:00;119,4
2017-08-01 19:15;113,3
2017-08-01 19:30;115,9
2017-08-01 19:45;116,1
2017-08-01 20:00;110,4
2017-08-01 20:15;109,65
2017-08-01 20:30;110,05
2017-08-01 20:45;113,85
2017-08-01 21:00;114,4
2017-08-01 21:15;112,5
2017-08-01 21:30;110,3
2017-08-01 21:45;105,65
2017-08-01 22:00;106,75
2017-08-01 22:15;114,8
2017-08-01 22:30;114,85
2017-08-01 22:45;108,8
2017-08-01 23:00;107,65
2017-08-01 23:15;99,9
2017-08-01 23:30;99,55
2017-08-01 23:45;94,75
2017-08-02 00:00;88,4
2017-08-02 00:15;88,75
2017-08-02 00:30;90
2017-08-02 00:45;85,75
2017-08-02 01:00;86,2
2017-08-02 01:15;84,95
2017-08-02 01:30;84,7
2017-08-02 01:45;83,55
2017-08-02 02:00;83,75
2017-08-02 02:15;83,45
2017-08-02 02:30;84,45
2017-08-02 02:45;84,15
2017-08-02 03:00;83,65
2017-08-02 03:15;83,05
2017-08-02 03:30;84,25
2017-08-02 03:45;82,9
2017-08-02 04:00;85
2017-08-02 04:15;82
2017-08-02 04:30;84,4
2017-08-02 04:45;81,65
2017-08-02 05:00;83,85
2017-08-02 05:15;83,1
2017-08-02 05:30;82,9
2017-08-02 05:45;81,8
2017-08-02 06:00;83,6
2017-08-02 06:15;80,85
2017-08-02 06:30;87
2017-08-02 06:45;88,95
2017-08-02 07:00;83,3
2017-08-02 07:15;89
2017-08-02 07:30;145,15
2017-08-02 07:45;110,9
2017-08-02 08:00;110,85
2017-08-02 08:15;115,45
2017-08-02 08:30;115,6
2017-08-02 08:45;130,65
2017-08-02 09:00;141,5
2017-08-02 09:15;147,75
2017-08-02 09:30;147,95
2017-08-02 09:45;148,55
2017-08-02 10:00;152,15
2017-08-02 10:15;153,2
2017-08-02 10:30;161,4
2017-08-02 10:45;162,55
2017-08-02 11:00;161,75
2017-08-02 11:15;166,15
2017-08-02 11:30;170,85
2017-08-02 11:45;179,3
2017-08-02 12:00;229,35
2017-08-02 12:15;172,2
2017-08-02 12:30;185,45
2017-08-02 12:45;184,2
2017-08-02 13:00;185,05
2017-08-02 13:15;184,15
2017-08-02 13:30;174,6
2017-08-02 13:45;187,7
2017-08-02 14:00;179,9
2017-08-02 14:15;175,45
2017-08-02 14:30;176
2017-08-02 14:45;165,45
2017-08-02 15:00;161,15
2017-08-02 15:15;148,7
2017-08-02 15:30;145,25
2017-08-02 15:45;141,8
2017-08-02 16:00;140
2017-08-02 16:15;140,25
2017-08-02 16:30;131,15
2017-08-02 16:45;130,6
2017-08-02 17:00;128,15
2017-08-02 17:15;124,75
2017-08-02 17:30;129,4
2017-08-02 17:45;127,6
2017-08-02 18:00;124
2017-08-02 18:15;128,85
2017-08-02 18:30;123,3
2017-08-02 18:45;125,25
2017-08-02 19:00;122,65
2017-08-02 19:15;117,55
2017-08-02 19:30;113,35
2017-08-02 19:45;121,15
2017-08-02 20:00;116,05
2017-08-02 20:15;116,3
2017-08-02 20:30;112
2017-08-02 20:45;117,2
2017-08-02 21:00;117,35
2017-08-02 21:15;111,2
2017-08-02 21:30;104,3
2017-08-02 21:45;102,1
2017-08-02 22:00;97,2
2017-08-02 22:15;103,7
2017-08-02 22:30;104,25
2017-08-02 22:45;100,35
2017-08-02 23:00;99,8
2017-08-02 23:15;88,8
2017-08-02 23:30;90,95
2017-08-02 23:45;89,9
2017-08-03 00:00;89,2
2017-08-03 00:15;88,75
2017-08-03 00:30;88,5
2017-08-03 00:45;88,5
2017-08-03 01:00;87,6
2017-08-03 01:15;88,3
2017-08-03 01:30;85,25
2017-08-03 01:45;86,55
2017-08-03 02:00;83,95
2017-08-03 02:15;85
2017-08-03 02:30;84,7
2017-08-03 02:45;82,8
2017-08-03 03:00;82,85
2017-08-03 03:15;83,5
2017-08-03 03:30;83,8
2017-08-03 03:45;83,6
2017-08-03 04:00;83,45
2017-08-03 04:15;85,3
2017-08-03 04:30;82,65
2017-08-03 04:45;82,35
2017-08-03 05:00;84,25
2017-08-03 05:15;82,85
2017-08-03 05:30;83,55
2017-08-03 05:45;83,5
2017-08-03 06:00;82,9
2017-08-03 06:15;81,3
2017-08-03 06:30;88,45
2017-08-03 06:45;89,05
2017-08-03 07:00;79,7
2017-08-03 07:15;88,25
2017-08-03 07:30;137,15
2017-08-03 07:45;124,3
2017-08-03 08:00;115,75
2017-08-03 08:15;123,7
2017-08-03 08:30;123,3
2017-08-03 08:45;147,75
2017-08-03 09:00;155,8
2017-08-03 09:15;158,45
2017-08-03 09:30;161,05
2017-08-03 09:45;171,1
2017-08-03 10:00;179
2017-08-03 10:15;176,95
2017-08-03 10:30;172,75
2017-08-03 10:45;176,1
2017-08-03 11:00;177,95
2017-08-03 11:15;177,45
2017-08-03 11:30;184,35
2017-08-03 11:45;195,85
2017-08-03 12:00;194
2017-08-03 12:15;195,5
2017-08-03 12:30;195,55
2017-08-03 12:45;194,25
2017-08-03 13:00;197,6
2017-08-03 13:15;194,1
2017-08-03 13:30;194,8
2017-08-03 13:45;203,65
2017-08-03 14:00;196,95
2017-08-03 14:15;194,3
2017-08-03 14:30;192
2017-08-03 14:45;174,8
2017-08-03 15:00;173,25
2017-08-03 15:15;160,25
2017-08-03 15:30;160,3
2017-08-03 15:45;150,9
2017-08-03 16:00;145,1
2017-08-03 16:15;141,7
2017-08-03 16:30;138,95
2017-08-03 16:45;143,75
2017-08-03 17:00;133,9
2017-08-03 17:15;128,95
2017-08-03 17:30;128,5
2017-08-03 17:45;127,95
2017-08-03 18:00;129,95
2017-08-03 18:15;124,35
2017-08-03 18:30;122,05
2017-08-03 18:45;118,15
2017-08-03 19:00;118
2017-08-03 19:15;110,5
2017-08-03 19:30;111,9
2017-08-03 19:45;111,2
2017-08-03 20:00;108,4
2017-08-03 20:15;107,4
2017-08-03 20:30;110,5
2017-08-03 20:45;114,3
2017-08-03 21:00;116,85
2017-08-03 21:15;114,15
2017-08-03 21:30;113,4
2017-08-03 21:45;108,3
2017-08-03 22:00;113,2
2017-08-03 22:15;113,9
2017-08-03 22:30;112,45
2017-08-03 22:45;110,7
2017-08-03 23:00;110,2
2017-08-03 23:15;99,3
2017-08-03 23:30;100,55
2017-08-03 23:45;101,1
2017-08-04 00:00;100,1
2017-08-04 00:15;100,2
2017-08-04 00:30;96
2017-08-04 00:45;92,85
2017-08-04 01:00;88,65
2017-08-04 01:15;86,85
2017-08-04 01:30;85,6
2017-08-04 01:45;85,1
2017-08-04 02:00;86,6
2017-08-04 02:15;85,15
2017-08-04 02:30;85,3
2017-08-04 02:45;82,7
2017-08-04 03:00;84
2017-08-04 03:15;83,05
2017-08-04 03:30;82,2
2017-08-04 03:45;83,85
2017-08-04 04:00;82,7
2017-08-04 04:15;82,3
2017-08-04 04:30;84,85
2017-08-04 04:45;81,6
2017-08-04 05:00;82,7
2017-08-04 05:15;83,4
2017-08-04 05:30;82,55
2017-08-04 05:45;81
2017-08-04 06:00;82,35
2017-08-04 06:15;80,5
2017-08-04 06:30;79,1
2017-08-04 06:45;87,1
2017-08-04 07:00;88,1
2017-08-04 07:15;88,2
2017-08-04 07:30;138,8
2017-08-04 07:45;120,95
2017-08-04 08:00;107,85
2017-08-04 08:15;118,4
2017-08-04 08:30;132,25
2017-08-04 08:45;144,15
2017-08-04 09:00;153,4
2017-08-04 09:15;155,9
2017-08-04 09:30;152,65
2017-08-04 09:45;159,25
2017-08-04 10:00;162,85
2017-08-04 10:15;162,9
2017-08-04 10:30;165,15
2017-08-04 10:45;176,1
2017-08-04 11:00;181,15
2017-08-04 11:15;173,6
2017-08-04 11:30;172,6
2017-08-04 11:45;182,2
2017-08-04 12:00;184,95
2017-08-04 12:15;179,65
2017-08-04 12:30;195,05
2017-08-04 12:45;197,5
2017-08-04 13:00;193,9
2017-08-04 13:15;197,2
2017-08-04 13:30;195,55
2017-08-04 13:45;197,65
2017-08-04 14:00;182,3
2017-08-04 14:15;167,6
2017-08-04 14:30;172,7
2017-08-04 14:45;159
2017-08-04 15:00;154,25
2017-08-04 15:15;139,65
2017-08-04 15:30;131,5
2017-08-04 15:45;128,55
2017-08-04 16:00;125,2
2017-08-04 16:15;120,2
2017-08-04 16:30;117
2017-08-04 16:45;117,85
2017-08-04 17:00;110
2017-08-04 17:15;107,25
2017-08-04 17:30;107
2017-08-04 17:45;105,35
2017-08-04 18:00;102,65
2017-08-04 18:15;106,8
2017-08-04 18:30;103,3
2017-08-04 18:45;101,4
2017-08-04 19:00;99,45
2017-08-04 19:15;94,85
2017-08-04 19:30;91,6
2017-08-04 19:45;91,3
2017-08-04 20:00;91
2017-08-04 20:15;89,8
2017-08-04 20:30;92,65
2017-08-04 20:45;94,05
2017-08-04 21:00;92,1
2017-08-04 21:15;92,55
2017-08-04 21:30;90,75
2017-08-04 21:45;90,5
2017-08-04 22:00;91
2017-08-04 22:15;98,7
2017-08-04 22:30;96,8
2017-08-04 22:45;95,1
2017-08-04 23:00;98,5
2017-08-04 23:15;87,85
2017-08-04 23:30;87,45
2017-08-04 23:45;88,55
2017-08-05 00:00;86,65
2017-08-05 00:15;85,75
2017-08-05 00:30;86,65
2017-08-05 00:45;85,5
2017-08-05 01:00;85,8
2017-08-05 01:15;84,2
2017-08-05 01:30;84,65
2017-08-05 01:45;83,65
2017-08-05 02:00;83,7
2017-08-05 02:15;82,95
2017-08-05 02:30;83,9
2017-08-05 02:45;82,9
2017-08-05 03:00;82,7
2017-08-05 03:15;81,9
2017-08-05 03:30;83,9
2017-08-05 03:45;81,05
2017-08-05 04:00;82,85
2017-08-05 04:15;82,95
2017-08-05 04:30;82,85
2017-08-05 04:45;81,35
2017-08-05 05:00;82,5
2017-08-05 05:15;81,8
2017-08-05 05:30;81,1
2017-08-05 05:45;82,3
2017-08-05 06:00;81,4
2017-08-05 06:15;80,75
2017-08-05 06:30;79,35
2017-08-05 06:45;77,05
2017-08-05 07:00;75,95
2017-08-05 07:15;74,7
2017-08-05 07:30;74,1
2017-08-05 07:45;76,3
2017-08-05 08:00;76,95
2017-08-05 08:15;74,75
2017-08-05 08:30;76,1
2017-08-05 08:45;77,35
2017-08-05 09:00;76,75
2017-08-05 09:15;78,4
2017-08-05 09:30;78,6
2017-08-05 09:45;77,45
2017-08-05 10:00;78,5
2017-08-05 10:15;79,2
2017-08-05 10:30;79,15
2017-08-05 10:45;80,55
2017-08-05 11:00;78,85
2017-08-05 11:15;79,85
2017-08-05 11:30;80,35
2017-08-05 11:45;79
2017-08-05 12:00;81,5
2017-08-05 12:15;79,7
2017-08-05 12:30;80,2
2017-08-05 12:45;84,6
2017-08-05 13:00;85,4
2017-08-05 13:15;87,1
2017-08-05 13:30;87,35
2017-08-05 13:45;88,75
2017-08-05 14:00;91
2017-08-05 14:15;89,1
2017-08-05 14:30;90,8
2017-08-05 14:45;88,1
2017-08-05 15:00;85,15
2017-08-05 15:15;82,6
2017-08-05 15:30;84,4
2017-08-05 15:45;85,75
2017-08-05 16:00;83
2017-08-05 16:15;81,9
2017-08-05 16:30;81,3
2017-08-05 16:45;82,35
2017-08-05 17:00;82,9
2017-08-05 17:15;84,55
2017-08-05 17:30;83
2017-08-05 17:45;82,05
2017-08-05 18:00;83,05
2017-08-05 18:15;84,3
2017-08-05 18:30;84,5
2017-08-05 18:45;84,9
2017-08-05 19:00;84,1
2017-08-05 19:15;86,2
2017-08-05 19:30;85,25
2017-08-05 19:45;88,05
2017-08-05 20:00;86,4
2017-08-05 20:15;86,85
2017-08-05 20:30;88,5
2017-08-05 20:45;92,7
2017-08-05 21:00;95,55
2017-08-05 21:15;90,5
2017-08-05 21:30;89,9
2017-08-05 21:45;91,7
2017-08-05 22:00;89,8
2017-08-05 22:15;97,85
2017-08-05 22:30;95,35
2017-08-05 22:45;91,45
2017-08-05 23:00;95,35
2017-08-05 23:15;84,75
2017-08-05 23:30;84,9
2017-08-05 23:45;84,55
2017-08-06 00:00;84,55
2017-08-06 00:15;83,75
2017-08-06 00:30;84,7
2017-08-06 00:45;85
2017-08-06 01:00;84,5
2017-08-06 01:15;85
2017-08-06 01:30;83,7
2017-08-06 01:45;83,1
2017-08-06 02:00;83,95
2017-08-06 02:15;84,2
2017-08-06 02:30;83,15
2017-08-06 02:45;83,6
2017-08-06 03:00;82,6
2017-08-06 03:15;83,1
2017-08-06 03:30;82,8
2017-08-06 03:45;83,25
2017-08-06 04:00;83,9
2017-08-06 04:15;83,4
2017-08-06 04:30;82,95
2017-08-06 04:45;83,3
2017-08-06 05:00;82,9
2017-08-06 05:15;81,8
2017-08-06 05:30;81,55
2017-08-06 05:45;83
2017-08-06 06:00;81,7
2017-08-06 06:15;81,35
2017-08-06 06:30;79,15
2017-08-06 06:45;78,2
2017-08-06 07:00;75,85
2017-08-06 07:15;75,5
2017-08-06 07:30;75,2
2017-08-06 07:45;78,2
2017-08-06 08:00;76,3
2017-08-06 08:15;75,8
2017-08-06 08:30;77,55
2017-08-06 08:45;78,85
2017-08-06 09:00;78,3
2017-08-06 09:15;77,4
2017-08-06 09:30;78,7
2017-08-06 09:45;77,65
2017-08-06 10:00;78,35
2017-08-06 10:15;78,4
2017-08-06 10:30;76,5
2017-08-06 10:45;77,85
2017-08-06 11:00;77,1
2017-08-06 11:15;77,6
2017-08-06 11:30;80
2017-08-06 11:45;82,3
2017-08-06 12:00;84
2017-08-06 12:15;80,25
2017-08-06 12:30;81,8
2017-08-06 12:45;83,65
2017-08-06 13:00;82,55
2017-08-06 13:15;83,45
2017-08-06 13:30;83,3
2017-08-06 13:45;83,9
2017-08-06 14:00;84
2017-08-06 14:15;83,8
2017-08-06 14:30;85,05
2017-08-06 14:45;82,4
2017-08-06 15:00;84,6
2017-08-06 15:15;82,6
2017-08-06 15:30;83,6
2017-08-06 15:45;80,65
2017-08-06 16:00;82,9
2017-08-06 16:15;82,05
2017-08-06 16:30;82,45
2017-08-06 16:45;85,9
2017-08-06 17:00;86,05
2017-08-06 17:15;84,2
2017-08-06 17:30;85,4
2017-08-06 17:45;86,5
2017-08-06 18:00;86,55
2017-08-06 18:15;86,85
2017-08-06 18:30;83,65
2017-08-06 18:45;82,4
2017-08-06 19:00;81,75
2017-08-06 19:15;81,5
2017-08-06 19:30;80,2
2017-08-06 19:45;82,3
2017-08-06 20:00;82,4
2017-08-06 20:15;83,2
2017-08-06 20:30;85,9
2017-08-06 20:45;91,3
2017-08-06 21:00;91,25
2017-08-06 21:15;88,3
2017-08-06 21:30;89,55
2017-08-06 21:45;89,65
2017-08-06 22:00;89,6
2017-08-06 22:15;95,65
2017-08-06 22:30;98,1
2017-08-06 22:45;94,2
2017-08-06 23:00;98,2
2017-08-06 23:15;88,3
2017-08-06 23:30;87,7
2017-08-06 23:45;86,6

